Погода Соболево

Погода Соболево : погода сейчас, прогноз погоды и архив. Всё, что Вы хотите узнать о погоде Соболево!

Поиск расширенной информации на нашем сайте:

Другие новости

Новости СМИ2

Главная страница сайта

Новости сайта

03.07.2017

Напоминаем, что на нашем специализированном сайте Метеоцентр.Азия вы можете получить высокодетализированные автоматические прогнозы погоды по пунктам России, СНГ и мира в авиационном формате (включающие направление и скорость ветра, видимость, явления погоды, количество и форму облачности, нижнюю и верхнюю границу облачности).


Погода Соболево - сегодня

Время (UTC), дата Ветер
(°,м/с) 
Видим.   Явления Облачность Т
(°С)
Тd
(°С)
f(%) Тe
(°С)
Pmin
(гПа)
dP
(гПа)
Po
(мм)
O2
(г/м3)
Тmin Tmax R s Состояние
почвы
06 18.09.17 200 (Ю) 5{10}  20000 м    9/9 600 м 
[Sc]
+11.9 +8.3 79 +11  1021.5  -0.1  764  294           
12 18.09.17 150 (ЮВ) 10 км    10/10 600 м 
[Sc]
+9.9 +8.3 90 +10  1021.4  -0.4  764  296           
15 18.09.17 160 (Ю) 10 км    10/10 600 м 
[Sc]
+9.8 +8.2 90 +10  1020.5  -0.9  763  295           
18 18.09.17 160 (Ю) 10 км    10/10 600 м 
[Sc]
+9.2 +8.1 93 +10  1019.5  -1  762  296           
00 19.09.17 070 (В) 10 км    10/10 600 м 
[Sc]
+11.8 +7.9 77 +12  1015  -2.9  759  292           
03 19.09.17 200 (Ю) 20000 м    10/10 1000 м 
[Sc]
+13 +7.4 69 +13  1013.9  -1.1  758  290           
06 19.09.17 280 (З) 10 км  слаб. ливневой дождь  10/10 300 м кучево-дожд. 
[Cb cap]
+12.1 +10.8 92 +14  1012.1  -1.8  757  290           
09 19.09.17 050 (СВ) 10 км  в посл. час ливневой дождь  10/10 300 м 
[St]
+10.1 +9.3 95 +11  1012.1  0.1  757  292    +14.7  0.5     
12 19.09.17 090 (В) 10 км  слаб. ливневой дождь  10/10 300 м кучево-дожд. 
[Cb cap]
+10.5 +9.1 91 +11  1011.4  -0.8  756  292           
15 19.09.17 100 (В) 10 км  {ливн. осадки}  10/10 300 м 
[St]
+11.2 +8.6 84 +11  1010.2  -1.2  755  291           
18 19.09.17 080 (В) 10 км  {ливн. осадки}  10/10 300 м 
[St]
+10.5 +8.2 86 +12  1009.2  -0.9  755  291           
21 19.09.17 070 (В) 10 км    10/10 600 м 
[Sc]
+11.2 +8 81 +11  1008.4  -0.8  754  290  +10      влажная 
00 20.09.17 130 (ЮВ) 20000 м    9/0 средняя 
[Ac As]
+17.5 +7.6 52 +18  1007.5  -0.8  753  284           
03 20.09.17 130 (ЮВ) 20000 м    9/0 средняя 
[Ac As]
+17.7 +6.6 48 +19  1006.4  -1.1  753  284           
06 20.09.17 140 (ЮВ) 20000 м    10/0 средняя 
[Ac und]
+15.9 +6.3 53 +17  1006.1  -0.4  752  285           
12 20.09.17 060 (СВ) 10 км    10/10 600 м 
[Sc]
+9.4 +8.1 92 +10  1007.1  0.1  753  292           
15 20.09.17 060 (СВ) н/о    н/о 
+9.5 +8.7 95 +11  1006.9  -0.2  753  292           
18 20.09.17 060 (СВ) 10 км  слаб. ливневой дождь  10/10 300 м кучево-дожд. 
[Cb cap]
+9 +8.3 95 +10  1007.1  0.2  753  292           
21 20.09.17 070 (В) 20000 м  в посл. час ливневой дождь  10/10 600 м 
[Sc]
+9.7 +8.5 92 +10  1006.1  -1  752  291  +8.9      влажная 
00 21.09.17 280 (З) 20000 м  слаб. ливневой дождь  10/10 1000 м кучево-дожд. 
[Cb cap]
+12.7 +11.1 90 +17  1006.4  0.3  753  288           
03 21.09.17 140 (ЮВ) 10 км  {ливн. осадки}  10/10 600 м кучево-дожд. 
[Cb cap]
+12 +10 88 +13  1007.2  0.8  753  289           
06 21.09.17 140 (ЮВ) 10 км  слаб. ливневой дождь  10/10 600 м кучево-дожд. 
[Cb cap]
+11.9 +10 88 +14  1008  0.7  754  289           
09 21.09.17 150 (ЮВ) 10 км  {ливн. осадки}  10/10 600 м 
[Sc]
+11.3 +8.9 85 +12  1008.7  0.7  754  290    +13.4     
12 21.09.17 130 (ЮВ) 10 км  {ливн. осадки}  10/10 600 м 
[Sc]
+10.9 +8.2 83 +12  1009.6  0.9  755  291           
15 21.09.17 180 (Ю) 10 км    10/10 600 м 
[Sc]
+10.9 +8.5 85 +11  1010.5  0.9  756  291           
Время (UTC), дата Ветер
(°,м/с) 
Видим.   Явления Облачность Т
(°С)
Тd
(°С)
f(%) Тe
(°С)
Pmin
(гПа)
dP
(гПа)
Po
(мм)
O2
(г/м3)
Тmin Tmax R s Состояние
почвы

Для получения пояснительной информации подведите курсор к названию столбца.

ПОГОДА Соболево - архив

Всё, что Вы хотите узнать о погоде Соболево - удобно и подробно!

Выберите нужную дату (начиная с 1 января 2015* года) и нажмите кнопку "Найти".
Будут отображены архивные сводки погоды по пункту Соболево, начиная с указанной даты.


Отображать данные в формате CSV (для использования в таблицах Excel)


Внимание! Наш архив погоды предназначен исключительно для личного некоммерческого использования в познавательных целях. Если Вам необходимы официальные справки о состоянии погоды (для производственных, юридических, коммерческих и т.п. целей), обращайтесь в органы Росгидромета.

*Примечание: данная дата относится к архиву по метеостанциям СССР (Россия, СНГ, Балтия).
Архив по метеостанциям Зарубежной Европы и Азии (кроме Китая) хранится 10 дней, по другим регионам земного шара (Китай, Африка, Америка, Австралия, Океания) - 1 день.

Соболево - район местоположения метеостанции


Название, широта, долгота, высота метеостанции:
Соболево 54.30°ш. 155.93°д. 14 м над ур. моря [Российская Федерация]

Дополнительная информация

В oтличие oт бoльшинства пoгoдных сайтoв мы публикуем пoдрoбную метеoинфoрмацию в детальнoм прoфессиoнальнoм фoрмате.

Характеристики температуры и влажнoсти вoздуха измеряются на высoте 2 м в тени вдали oт зданий и деревьев.
Скoрoсть ветра измеряется на высoте 10 м (на урoвне рoста челoвека скoрoсть ветра ниже в 1.5-2 раза). Если метеoстанция нахoдится в гoрoде или в лесу, тo скoрoсть ветра занижена на 2-4 м/с пo сравнению с oткрытым местoм. Скoрoсть ветра над акватoриями крупных рек и oзёр, а также на вершинах хoлмoв на 2-5 м/с выше, чем в oбычных услoвиях.
Атмoсфернoе давление в разных тoчках местнoсти мoжет значительнo oтличаться oт давления на метеoстанции, в зависимoсти oт услoвий рельефа (при пoдъёме на 10 м давление пoнижается примернo на 1 мм рт.ст.).